LOG327 KTEX-KAVX

Flight info

Callsign LOG327
Flight time 1h 36m
Altitude 30000
Route ETL V68 DVC/N0415F300 TBC J64 CIVET
Aircraft RJ1H/M-SDFGIRWY/LB1

Departure

Time 2026-04-20 10:37
Airport Telluride Regional Airport (KTEX)

Arrival

Time 2026-04-20 12:13
Airport Catalina Airport (KAVX)
Time Latitude Longitude Altitude Speed Heading
2026-04-20 10:05 37.95410 -107.90203 9058 ft 0 kts 14°
2026-04-20 10:18 37.95404 -107.90205 9058 ft 4 kts 12°
2026-04-20 10:18 37.95377 -107.90208 9057 ft 4 kts 355°
2026-04-20 10:19 37.95355 -107.90197 9058 ft 4 kts 304°
2026-04-20 10:19 37.95351 -107.90187 9058 ft 3 kts 285°
2026-04-20 10:26 37.95351 -107.90188 9057 ft 1 kts 285°
2026-04-20 10:27 37.95357 -107.90191 9058 ft 1 kts 12°
2026-04-20 10:27 37.95358 -107.90172 9058 ft 4 kts 94°
2026-04-20 10:27 37.95349 -107.90131 9058 ft 5 kts 118°
2026-04-20 10:27 37.95343 -107.90121 9058 ft 0 kts 144°
2026-04-20 10:28 37.95336 -107.90118 9058 ft 3 kts 165°
2026-04-20 10:28 37.95303 -107.90121 9059 ft 6 kts 190°
2026-04-20 10:28 37.95245 -107.90172 9048 ft 17 kts 255°
2026-04-20 10:28 37.95270 -107.90344 9044 ft 23 kts 284°
2026-04-20 10:29 37.95314 -107.90559 9034 ft 27 kts 284°
2026-04-20 10:29 37.95366 -107.90806 9023 ft 29 kts 284°
2026-04-20 10:29 37.95416 -107.91050 9024 ft 29 kts 285°
2026-04-20 10:29 37.95472 -107.91302 9031 ft 29 kts 285°
2026-04-20 10:30 37.95522 -107.91543 9035 ft 26 kts 283°
2026-04-20 10:30 37.95564 -107.91747 9041 ft 22 kts 285°
2026-04-20 10:30 37.95598 -107.91926 9043 ft 20 kts 278°
2026-04-20 10:30 37.95627 -107.91995 9046 ft 9 kts 135°
2026-04-20 10:31 37.95614 -107.91976 9046 ft 4 kts 108°
2026-04-20 10:31 37.95603 -107.91920 9045 ft 9 kts 104°
2026-04-20 10:31 37.95583 -107.91818 9041 ft 14 kts 104°
2026-04-20 10:31 37.95552 -107.91676 9041 ft 20 kts 107°
2026-04-20 10:32 37.95509 -107.91472 9031 ft 27 kts 104°
2026-04-20 10:32 37.95458 -107.91229 9030 ft 30 kts 105°
2026-04-20 10:32 37.95404 -107.90974 9028 ft 30 kts 105°
2026-04-20 10:32 37.95351 -107.90723 9026 ft 29 kts 105°
2026-04-20 10:33 37.95303 -107.90498 9036 ft 24 kts 105°
2026-04-20 10:33 37.95258 -107.90305 9039 ft 23 kts 108°
2026-04-20 10:33 37.95266 -107.90139 9052 ft 17 kts 32°
2026-04-20 10:33 37.95322 -107.90043 9059 ft 19 kts 101°
2026-04-20 10:34 37.95298 -107.89935 9064 ft 20 kts 105°
2026-04-20 10:34 37.95265 -107.89781 9071 ft 17 kts 106°
2026-04-20 10:34 37.95223 -107.89674 9075 ft 6 kts 158°
2026-04-20 10:35 37.95174 -107.89678 9076 ft 8 kts 186°
2026-04-20 10:35 37.95142 -107.89740 9073 ft 10 kts 281°
2026-04-20 10:35 37.95152 -107.89793 9071 ft 0 kts 284°
2026-04-20 10:36 37.95153 -107.89794 9071 ft 1 kts 284°
2026-04-20 10:36 37.95156 -107.89810 9070 ft 15 kts 285°
2026-04-20 10:36 37.95242 -107.90212 9045 ft 78 kts 285°
2026-04-20 10:36 37.95430 -107.91106 9028 ft 128 kts 285°
2026-04-20 10:37 37.95687 -107.92349 9122 ft 156 kts 282°
2026-04-20 10:37 37.95984 -107.93711 9442 ft 169 kts 285°
2026-04-20 10:37 37.96328 -107.95182 9960 ft 177 kts 284°
2026-04-20 10:37 37.96674 -107.96671 10553 ft 175 kts 282°
2026-04-20 10:38 37.97031 -107.98125 11165 ft 172 kts 284°
2026-04-20 10:38 37.97413 -107.99615 11337 ft 186 kts 285°
2026-04-20 10:38 37.97848 -108.01288 11458 ft 216 kts 285°
2026-04-20 10:38 37.98332 -108.03196 11909 ft 237 kts 285°
2026-04-20 10:39 37.98855 -108.05242 12364 ft 251 kts 286°
2026-04-20 10:39 37.99397 -108.07353 13007 ft 258 kts 286°
2026-04-20 10:39 37.99947 -108.09520 13859 ft 258 kts 285°
2026-04-20 10:39 38.00483 -108.11695 14636 ft 259 kts 285°
2026-04-20 10:40 38.01017 -108.13882 15318 ft 261 kts 285°
2026-04-20 10:40 38.01556 -108.16099 15935 ft 264 kts 285°
2026-04-20 10:40 38.02109 -108.18332 16602 ft 267 kts 285°
2026-04-20 10:40 38.02675 -108.20586 17263 ft 269 kts 286°
2026-04-20 10:41 38.03245 -108.22855 17913 ft 271 kts 286°
2026-04-20 10:41 38.03799 -108.25152 18490 ft 273 kts 281°
2026-04-20 10:41 38.03736 -108.27537 18949 ft 274 kts 252°
2026-04-20 10:41 38.03005 -108.29783 19431 ft 277 kts 247°
2026-04-20 10:42 38.02197 -108.31978 19911 ft 279 kts 246°
2026-04-20 10:42 38.01353 -108.34208 20382 ft 281 kts 246°
2026-04-20 10:42 38.00501 -108.36450 20832 ft 283 kts 246°
2026-04-20 10:42 37.99660 -108.38711 21272 ft 284 kts 246°
2026-04-20 10:43 37.98836 -108.40994 21702 ft 286 kts 247°
2026-04-20 10:43 37.98020 -108.43306 22137 ft 288 kts 248°
2026-04-20 10:43 37.97208 -108.45629 22554 ft 289 kts 248°
2026-04-20 10:43 37.96410 -108.47977 22942 ft 291 kts 249°
2026-04-20 10:44 37.95608 -108.50338 23313 ft 293 kts 248°
2026-04-20 10:44 37.94790 -108.52706 23676 ft 294 kts 248°
2026-04-20 10:44 37.93973 -108.55087 23979 ft 295 kts 249°
2026-04-20 10:44 37.93162 -108.57486 24255 ft 297 kts 249°
2026-04-20 10:45 37.92333 -108.59888 24512 ft 299 kts 248°
2026-04-20 10:45 37.91492 -108.62302 24757 ft 300 kts 248°
2026-04-20 10:45 37.90656 -108.64733 25009 ft 302 kts 249°
2026-04-20 10:45 37.89822 -108.67181 25251 ft 303 kts 248°
2026-04-20 10:46 37.88972 -108.69627 25479 ft 305 kts 248°
2026-04-20 10:46 37.88116 -108.72086 25697 ft 306 kts 248°
2026-04-20 10:46 37.87274 -108.74524 25926 ft 307 kts 249°
2026-04-20 10:46 37.86424 -108.77012 26127 ft 308 kts 248°
2026-04-20 10:47 37.85556 -108.79503 26336 ft 310 kts 248°
2026-04-20 10:47 37.84680 -108.82000 26526 ft 311 kts 248°
2026-04-20 10:47 37.83808 -108.84507 26726 ft 312 kts 249°
2026-04-20 10:47 37.82943 -108.87030 26922 ft 313 kts 248°
2026-04-20 10:48 37.82062 -108.89554 27107 ft 314 kts 248°
2026-04-20 10:48 37.81162 -108.92106 27128 ft 322 kts 246°
2026-04-20 10:48 37.79946 -108.94522 27163 ft 331 kts 235°
2026-04-20 10:48 37.78468 -108.96795 27193 ft 338 kts 232°
2026-04-20 10:49 37.76899 -108.99045 27219 ft 345 kts 231°
2026-04-20 10:49 37.75276 -109.01314 27244 ft 351 kts 230°
2026-04-20 10:49 37.73615 -109.03612 27261 ft 357 kts 230°
2026-04-20 10:49 37.71922 -109.05945 27278 ft 363 kts 231°
2026-04-20 10:50 37.70218 -109.08336 27304 ft 369 kts 231°
2026-04-20 10:50 37.68499 -109.10771 27331 ft 375 kts 231°
2026-04-20 10:50 37.66780 -109.13217 27368 ft 380 kts 231°
2026-04-20 10:50 37.65013 -109.15735 27409 ft 386 kts 231°
2026-04-20 10:51 37.63223 -109.18293 27443 ft 391 kts 231°
2026-04-20 10:51 37.61416 -109.20882 27479 ft 396 kts 231°
2026-04-20 10:51 37.59585 -109.23511 27506 ft 401 kts 231°
2026-04-20 10:51 37.57726 -109.26164 27535 ft 406 kts 231°
2026-04-20 10:52 37.55827 -109.28832 27552 ft 411 kts 230°
2026-04-20 10:52 37.53920 -109.31536 27574 ft 415 kts 231°
2026-04-20 10:52 37.52007 -109.34242 27930 ft 410 kts 230°
2026-04-20 10:52 37.50115 -109.36928 28103 ft 410 kts 231°
2026-04-20 10:53 37.48246 -109.39577 28211 ft 411 kts 230°
2026-04-20 10:53 37.46333 -109.42260 28329 ft 412 kts 230°
2026-04-20 10:53 37.44544 -109.44776 28433 ft 413 kts 231°
2026-04-20 10:53 37.42647 -109.47486 28546 ft 414 kts 231°
2026-04-20 10:54 37.40738 -109.50180 28654 ft 414 kts 230°
2026-04-20 10:54 37.38807 -109.52897 28760 ft 415 kts 230°
2026-04-20 10:54 37.36877 -109.55604 28870 ft 416 kts 230°
2026-04-20 10:55 37.33022 -109.61011 29067 ft 418 kts 230°
2026-04-20 10:55 37.29170 -109.66429 29251 ft 419 kts 230°
2026-04-20 10:56 37.25280 -109.71895 29429 ft 420 kts 230°
2026-04-20 10:56 37.21383 -109.77379 29620 ft 421 kts 230°
2026-04-20 10:57 37.17472 -109.82880 29776 ft 423 kts 230°
2026-04-20 10:57 37.15514 -109.85631 29890 ft 423 kts 230°
2026-04-20 10:57 37.13551 -109.88387 29966 ft 423 kts 230°
2026-04-20 10:58 37.09613 -109.93892 30066 ft 424 kts 230°
2026-04-20 10:58 37.05682 -109.99339 30155 ft 425 kts 230°
2026-04-20 10:59 37.01780 -110.04770 30042 ft 418 kts 230°
2026-04-20 10:59 36.97887 -110.10182 30023 ft 418 kts 230°
2026-04-20 11:00 36.93987 -110.15583 30025 ft 418 kts 230°
2026-04-20 11:00 36.90087 -110.20985 30011 ft 419 kts 230°
2026-04-20 11:01 36.86201 -110.26349 30009 ft 420 kts 231°
2026-04-20 11:01 36.82273 -110.31762 30005 ft 420 kts 231°
2026-04-20 11:02 36.78346 -110.37162 29984 ft 420 kts 231°
2026-04-20 11:02 36.74419 -110.42551 29965 ft 420 kts 231°
2026-04-20 11:03 36.70493 -110.47928 29971 ft 420 kts 231°
2026-04-20 11:03 36.66561 -110.53309 29968 ft 420 kts 231°
2026-04-20 11:04 36.62654 -110.58662 29957 ft 420 kts 231°
2026-04-20 11:04 36.58702 -110.64030 29952 ft 421 kts 230°
2026-04-20 11:05 36.54756 -110.69409 29941 ft 421 kts 231°
2026-04-20 11:05 36.50797 -110.74776 29945 ft 421 kts 230°
2026-04-20 11:06 36.46848 -110.80147 29949 ft 421 kts 230°
2026-04-20 11:06 36.42877 -110.85501 29944 ft 421 kts 230°
2026-04-20 11:07 36.38946 -110.90836 29949 ft 421 kts 230°
2026-04-20 11:07 36.34971 -110.96195 29949 ft 422 kts 230°
2026-04-20 11:08 36.30990 -111.01536 29953 ft 422 kts 230°
2026-04-20 11:08 36.27021 -111.06893 29955 ft 422 kts 230°
2026-04-20 11:09 36.23025 -111.12234 29964 ft 422 kts 230°
2026-04-20 11:09 36.19047 -111.17591 29972 ft 423 kts 230°
2026-04-20 11:10 36.15128 -111.23002 29972 ft 420 kts 238°
2026-04-20 11:10 36.12361 -111.29277 29984 ft 418 kts 244°
2026-04-20 11:11 36.10173 -111.35913 29994 ft 417 kts 254°
2026-04-20 11:11 36.08672 -111.42837 29994 ft 417 kts 257°
2026-04-20 11:12 36.07305 -111.49807 29994 ft 417 kts 257°
2026-04-20 11:12 36.05894 -111.56772 29998 ft 418 kts 256°
2026-04-20 11:13 36.04419 -111.63663 30003 ft 418 kts 256°
2026-04-20 11:13 36.02946 -111.70622 29992 ft 418 kts 256°
2026-04-20 11:14 36.01457 -111.77566 30046 ft 418 kts 256°
2026-04-20 11:14 35.99980 -111.84524 30100 ft 419 kts 256°
2026-04-20 11:15 35.98486 -111.91484 30151 ft 419 kts 256°
2026-04-20 11:15 35.96990 -111.98454 30200 ft 420 kts 256°
2026-04-20 11:16 35.95505 -112.05383 30236 ft 421 kts 256°
2026-04-20 11:16 35.94013 -112.12362 30230 ft 421 kts 256°
2026-04-20 11:17 35.92525 -112.19338 30232 ft 420 kts 256°
2026-04-20 11:17 35.91033 -112.26313 30225 ft 421 kts 256°
2026-04-20 11:18 35.89500 -112.33287 30175 ft 421 kts 256°
2026-04-20 11:18 35.87965 -112.40260 30131 ft 422 kts 256°
2026-04-20 11:19 35.86443 -112.47245 30084 ft 422 kts 255°
2026-04-20 11:19 35.84893 -112.54223 30023 ft 422 kts 256°
2026-04-20 11:20 35.83376 -112.61174 30006 ft 423 kts 255°
2026-04-20 11:20 35.81828 -112.68156 30000 ft 423 kts 255°
2026-04-20 11:21 35.80283 -112.75142 29991 ft 423 kts 255°
2026-04-20 11:21 35.78745 -112.82137 29985 ft 423 kts 255°
2026-04-20 11:22 35.77217 -112.89126 29976 ft 423 kts 255°
2026-04-20 11:22 35.75639 -112.96103 29971 ft 423 kts 255°
2026-04-20 11:23 35.74075 -113.03034 29970 ft 423 kts 255°
2026-04-20 11:23 35.72498 -113.10051 29963 ft 423 kts 255°
2026-04-20 11:24 35.70922 -113.16972 29956 ft 423 kts 254°
2026-04-20 11:24 35.69337 -113.23933 29957 ft 423 kts 254°
2026-04-20 11:25 35.67764 -113.30895 29948 ft 422 kts 255°
2026-04-20 11:25 35.66194 -113.37862 29945 ft 422 kts 254°
2026-04-20 11:26 35.64638 -113.44774 29937 ft 423 kts 255°
2026-04-20 11:26 35.63070 -113.51745 29926 ft 423 kts 254°
2026-04-20 11:27 35.61359 -113.58657 29914 ft 423 kts 252°
2026-04-20 11:27 35.59486 -113.65511 29910 ft 423 kts 251°
2026-04-20 11:28 35.57607 -113.72369 29912 ft 424 kts 251°
2026-04-20 11:28 35.55721 -113.79242 29932 ft 425 kts 251°
2026-04-20 11:29 35.53865 -113.86135 29935 ft 426 kts 252°
2026-04-20 11:29 35.51992 -113.92990 29943 ft 426 kts 252°
2026-04-20 11:30 35.50120 -113.99885 29945 ft 426 kts 252°
2026-04-20 11:30 35.48235 -114.06804 29939 ft 427 kts 252°
2026-04-20 11:31 35.46331 -114.13701 29942 ft 427 kts 252°
2026-04-20 11:31 35.44436 -114.20628 29928 ft 428 kts 252°
2026-04-20 11:32 35.42535 -114.27557 29908 ft 429 kts 252°
2026-04-20 11:32 35.40622 -114.34496 29889 ft 429 kts 252°
2026-04-20 11:33 35.38699 -114.41386 29891 ft 430 kts 252°
2026-04-20 11:33 35.36782 -114.48316 29897 ft 429 kts 252°
2026-04-20 11:34 35.34845 -114.55233 29898 ft 429 kts 252°
2026-04-20 11:34 35.32896 -114.62144 29904 ft 429 kts 252°
2026-04-20 11:35 35.30970 -114.69057 29896 ft 429 kts 252°
2026-04-20 11:35 35.29362 -114.74797 29896 ft 429 kts 252°
2026-04-20 11:36 35.27109 -114.82824 29911 ft 429 kts 252°
2026-04-20 11:36 35.25487 -114.88610 29911 ft 429 kts 252°
2026-04-20 11:37 35.23554 -114.95513 29920 ft 429 kts 252°
2026-04-20 11:37 35.20651 -115.05800 29924 ft 429 kts 253°
2026-04-20 11:38 35.18667 -115.12692 29945 ft 430 kts 253°
2026-04-20 11:38 35.16704 -115.19602 29940 ft 430 kts 253°
2026-04-20 11:39 35.14718 -115.26487 29952 ft 429 kts 253°
2026-04-20 11:39 35.12738 -115.33359 29960 ft 428 kts 253°
2026-04-20 11:40 35.10765 -115.40223 29971 ft 428 kts 253°
2026-04-20 11:40 35.08803 -115.47074 29972 ft 427 kts 253°
2026-04-20 11:41 35.06857 -115.53886 29981 ft 428 kts 253°
2026-04-20 11:41 35.04903 -115.60736 29976 ft 427 kts 253°
2026-04-20 11:42 35.02931 -115.67565 29967 ft 426 kts 252°
2026-04-20 11:42 35.00952 -115.74375 29958 ft 425 kts 252°
2026-04-20 11:43 34.98954 -115.81167 29951 ft 425 kts 252°
2026-04-20 11:43 34.96970 -115.87960 29952 ft 426 kts 252°
2026-04-20 11:44 34.94978 -115.94764 29951 ft 426 kts 252°
2026-04-20 11:44 34.92972 -116.01545 29942 ft 425 kts 252°
2026-04-20 11:45 34.90959 -116.08315 29937 ft 425 kts 252°
2026-04-20 11:45 34.88962 -116.15040 29937 ft 424 kts 252°
2026-04-20 11:46 34.86959 -116.21801 29936 ft 424 kts 252°
2026-04-20 11:46 34.84963 -116.28554 29926 ft 424 kts 252°
2026-04-20 11:47 34.82971 -116.35298 29914 ft 423 kts 252°
2026-04-20 11:47 34.80826 -116.41950 29952 ft 424 kts 243°
2026-04-20 11:48 34.77759 -116.48101 29964 ft 426 kts 237°
2026-04-20 11:48 34.73897 -116.53610 29977 ft 430 kts 228°
2026-04-20 11:49 34.69669 -116.58696 29972 ft 430 kts 227°
2026-04-20 11:49 34.65420 -116.63782 29970 ft 428 kts 227°
2026-04-20 11:50 34.61227 -116.68921 29967 ft 428 kts 228°
2026-04-20 11:50 34.57050 -116.74069 29960 ft 427 kts 228°
2026-04-20 11:51 34.52858 -116.79181 29953 ft 427 kts 227°
2026-04-20 11:51 34.48677 -116.84300 29949 ft 427 kts 227°
2026-04-20 11:52 34.46612 -116.86800 29433 ft 424 kts 227°
2026-04-20 11:52 34.44500 -116.89345 28703 ft 420 kts 227°
2026-04-20 11:52 34.42449 -116.91818 28158 ft 421 kts 227°
2026-04-20 11:52 34.40389 -116.94305 27614 ft 416 kts 227°
2026-04-20 11:53 34.38359 -116.96767 27085 ft 411 kts 227°
2026-04-20 11:53 34.36350 -116.99209 26568 ft 408 kts 227°
2026-04-20 11:53 34.34358 -117.01638 26065 ft 404 kts 227°
2026-04-20 11:53 34.32394 -117.04042 25580 ft 400 kts 227°
2026-04-20 11:54 34.30449 -117.06429 25107 ft 396 kts 227°
2026-04-20 11:54 34.28524 -117.08790 24636 ft 393 kts 226°
2026-04-20 11:54 34.26599 -117.11113 24177 ft 390 kts 226°
2026-04-20 11:54 34.24682 -117.13418 23723 ft 387 kts 226°
2026-04-20 11:55 34.22787 -117.15700 23212 ft 383 kts 226°
2026-04-20 11:55 34.20903 -117.17969 22673 ft 380 kts 226°
2026-04-20 11:55 34.19039 -117.20222 22148 ft 377 kts 226°
2026-04-20 11:55 34.17200 -117.22459 21625 ft 375 kts 226°
2026-04-20 11:56 34.15394 -117.24660 21115 ft 372 kts 225°
2026-04-20 11:56 34.13564 -117.26854 20604 ft 370 kts 225°
2026-04-20 11:56 34.11748 -117.29031 20092 ft 367 kts 225°
2026-04-20 11:56 34.09940 -117.31199 19589 ft 365 kts 225°
2026-04-20 11:57 34.08150 -117.33356 19097 ft 363 kts 225°
2026-04-20 11:57 34.06373 -117.35506 18611 ft 360 kts 225°
2026-04-20 11:57 34.04611 -117.37638 18086 ft 358 kts 225°
2026-04-20 11:57 34.02919 -117.39815 17541 ft 354 kts 230°
2026-04-20 11:58 34.01419 -117.42151 16999 ft 351 kts 233°
2026-04-20 11:58 33.99987 -117.44525 16467 ft 349 kts 233°
2026-04-20 11:58 33.98589 -117.46901 15944 ft 346 kts 233°
2026-04-20 11:58 33.97201 -117.49256 15435 ft 343 kts 233°
2026-04-20 11:59 33.95822 -117.51585 14947 ft 340 kts 233°
2026-04-20 11:59 33.94440 -117.53880 14663 ft 339 kts 232°
2026-04-20 11:59 33.93056 -117.56170 14386 ft 337 kts 232°
2026-04-20 11:59 33.91679 -117.58444 14119 ft 336 kts 232°
2026-04-20 12:00 33.90306 -117.60709 13842 ft 335 kts 232°
2026-04-20 12:00 33.88920 -117.62951 13533 ft 333 kts 231°
2026-04-20 12:00 33.87547 -117.65194 13214 ft 331 kts 232°
2026-04-20 12:00 33.86211 -117.67400 12908 ft 330 kts 232°
2026-04-20 12:01 33.84845 -117.69621 12504 ft 328 kts 232°
2026-04-20 12:01 33.83500 -117.71827 12104 ft 326 kts 232°
2026-04-20 12:01 33.82163 -117.74028 11713 ft 324 kts 232°
2026-04-20 12:01 33.80818 -117.76200 11325 ft 322 kts 231°
2026-04-20 12:02 33.79492 -117.78360 10929 ft 320 kts 232°
2026-04-20 12:02 33.78192 -117.80501 10551 ft 313 kts 232°
2026-04-20 12:02 33.76912 -117.82571 10164 ft 304 kts 231°
2026-04-20 12:02 33.75664 -117.84589 9769 ft 298 kts 232°
2026-04-20 12:03 33.74440 -117.86587 9357 ft 296 kts 231°
2026-04-20 12:03 33.73220 -117.88567 8946 ft 294 kts 232°
2026-04-20 12:03 33.72013 -117.90558 8537 ft 293 kts 232°
2026-04-20 12:03 33.70803 -117.92518 8151 ft 292 kts 231°
2026-04-20 12:04 33.69612 -117.94444 7761 ft 290 kts 232°
2026-04-20 12:04 33.68424 -117.96397 7373 ft 289 kts 232°
2026-04-20 12:04 33.67242 -117.98337 6989 ft 287 kts 232°
2026-04-20 12:04 33.66059 -118.00269 6609 ft 286 kts 232°
2026-04-20 12:05 33.64871 -118.02177 6222 ft 285 kts 232°
2026-04-20 12:05 33.63697 -118.04086 5817 ft 284 kts 232°
2026-04-20 12:05 33.62522 -118.05993 5305 ft 283 kts 232°
2026-04-20 12:05 33.61354 -118.07888 4817 ft 282 kts 232°
2026-04-20 12:06 33.60182 -118.09782 4214 ft 284 kts 232°
2026-04-20 12:06 33.58996 -118.11690 3585 ft 286 kts 232°
2026-04-20 12:06 33.57807 -118.13614 3048 ft 286 kts 233°
2026-04-20 12:06 33.56709 -118.15409 2570 ft 245 kts 233°
2026-04-20 12:07 33.55760 -118.16946 2211 ft 214 kts 232°
2026-04-20 12:07 33.54940 -118.18264 2085 ft 187 kts 232°
2026-04-20 12:07 33.54182 -118.19474 2054 ft 173 kts 233°
2026-04-20 12:07 33.53513 -118.20538 2195 ft 146 kts 233°
2026-04-20 12:08 33.52882 -118.21559 2285 ft 165 kts 234°
2026-04-20 12:08 33.52161 -118.22737 2221 ft 178 kts 234°
2026-04-20 12:08 33.51442 -118.23908 2343 ft 173 kts 233°
2026-04-20 12:08 33.50715 -118.25074 2509 ft 175 kts 233°
2026-04-20 12:09 33.49989 -118.26241 2669 ft 175 kts 234°
2026-04-20 12:09 33.49268 -118.27415 2824 ft 175 kts 234°
2026-04-20 12:09 33.48542 -118.28603 2919 ft 176 kts 234°
2026-04-20 12:09 33.47834 -118.29760 2933 ft 175 kts 234°
2026-04-20 12:10 33.47115 -118.30914 3021 ft 167 kts 233°
2026-04-20 12:10 33.46437 -118.31994 3112 ft 151 kts 233°
2026-04-20 12:10 33.45864 -118.32918 3177 ft 126 kts 234°
2026-04-20 12:10 33.45331 -118.33744 3155 ft 129 kts 230°
2026-04-20 12:11 33.44762 -118.34559 3085 ft 127 kts 231°
2026-04-20 12:11 33.44182 -118.35376 2951 ft 130 kts 230°
2026-04-20 12:11 33.43625 -118.36206 2760 ft 128 kts 232°
2026-04-20 12:11 33.43095 -118.37091 2509 ft 130 kts 236°
2026-04-20 12:12 33.42641 -118.38002 2203 ft 125 kts 238°
2026-04-20 12:12 33.42161 -118.38835 1987 ft 119 kts 235°
2026-04-20 12:12 33.41669 -118.39623 1855 ft 119 kts 234°
2026-04-20 12:12 33.41178 -118.40448 1724 ft 123 kts 235°
2026-04-20 12:13 33.40672 -118.41291 1578 ft 118 kts 234°
2026-04-20 12:13 33.40287 -118.41964 1609 ft 65 kts 256°
2026-04-20 12:13 33.40232 -118.42330 1374 ft 47 kts 263°
2026-04-20 12:13 33.40191 -118.42819 1010 ft 76 kts 292°
2026-04-20 12:14 33.40077 -118.43102 869 ft 5 kts 183°
2026-04-20 12:14 33.40079 -118.43102 864 ft 0 kts 185°